Tracking 35274 objects as of 10-Sep-2026
HD Live streaming from Space Station
objects crossing your sky now

BREEZE-M DEB


BREEZE-M DEB is no longer on orbit


NORAD ID: 36757
Int'l Code: 2009-042L
Launch date: August 11, 2009
Source: Commonwealth of Independent States (former USSR) (CIS)
Launch site: TYURATAM MISSILE AND SPACE COMPLEX (TTMTR)
Decay date: 2010-07-16

Note: This is SATELLITE DEBRIS
Your satellite tracking list
Your tracking list is empty




NASA's NSSDC Master Catalog

Two Line Element Set (TLE):
1 36757U 09042L   10195.67466278  .07653716  44315-1  95182-1 0  9994
2 36757 049.5632 047.0493 0215206 221.6959 133.4860 15.40426983  2982
Source of the keplerian elements: AFSPC